Time,TemperatureF,DewpointF,PressureIn,WindDirection,WindDirectionDegrees,WindSpeedMPH,WindSpeedGustMPH,Humidity,HourlyPrecipIn,Conditions,Clouds,dailyrainin,SolarRadiationWatts/m^2,SoftwareType,DateUTC
2013-01-16 00:00:00,37.9,33.8,30.19,NE,50,5.0,5.0,85,0.07,,,0.36,0,Wunderground v.1.15,2013-01-16 05:00:00,
2013-01-16 00:02:00,37.9,34.1,30.19,East,82,0.0,7.0,86,0.06,,,0.01,0,Wunderground v.1.15,2013-01-16 05:02:00,
2013-01-16 00:06:00,37.8,34.0,30.17,East,85,8.0,8.0,86,0.13,,,0.02,0,Wunderground v.1.15,2013-01-16 05:06:00,
2013-01-16 00:11:00,37.7,33.9,30.18,East,80,0.0,3.0,86,0.10,,,0.02,0,Wunderground v.1.15,2013-01-16 05:11:00,
2013-01-16 00:17:00,37.7,33.9,30.18,East,80,0.0,3.0,86,0.07,,,0.03,0,Wunderground v.1.15,2013-01-16 05:17:00,
2013-01-16 00:23:00,37.7,34.2,30.18,East,83,2.0,3.0,87,0.08,,,0.04,0,Wunderground v.1.15,2013-01-16 05:23:00,
2013-01-16 00:29:00,37.7,34.2,30.18,ENE,76,2.0,9.0,87,0.08,,,0.04,0,Wunderground v.1.15,2013-01-16 05:29:00,
2013-01-16 00:35:00,37.6,34.1,30.17,East,81,6.0,6.0,87,0.07,,,0.05,0,Wunderground v.1.15,2013-01-16 05:35:00,
2013-01-16 00:41:00,37.6,34.1,30.17,ENE,74,0.0,4.0,87,0.07,,,0.06,0,Wunderground v.1.15,2013-01-16 05:41:00,
2013-01-16 00:46:00,37.6,34.1,30.16,East,92,2.0,4.0,87,0.08,,,0.07,0,Wunderground v.1.15,2013-01-16 05:46:00,
2013-01-16 00:52:00,37.7,34.5,30.16,ENE,76,0.0,4.0,88,0.08,,,0.07,0,Wunderground v.1.15,2013-01-16 05:52:00,
2013-01-16 00:57:00,37.7,34.5,30.16,NE,48,8.0,8.0,88,0.08,,,0.08,0,Wunderground v.1.15,2013-01-16 05:57:00,
2013-01-16 01:02:00,37.7,34.5,30.15,NE,40,6.0,6.0,88,0.07,,,0.08,0,Wunderground v.1.15,2013-01-16 06:02:00,
2013-01-16 01:08:00,37.7,34.5,30.15,ENE,74,8.0,8.0,88,0.06,,,0.09,0,Wunderground v.1.15,2013-01-16 06:08:00,
2013-01-16 01:14:00,37.7,34.8,30.14,NNE,22,3.0,4.0,89,0.06,,,0.10,0,Wunderground v.1.15,2013-01-16 06:14:00,
2013-01-16 01:20:00,37.7,34.8,30.14,East,85,7.0,7.0,89,0.06,,,0.10,0,Wunderground v.1.15,2013-01-16 06:20:00,
2013-01-16 01:26:00,37.7,34.8,30.15,East,94,5.0,9.0,89,0.07,,,0.11,0,Wunderground v.1.15,2013-01-16 06:26:00,
2013-01-16 01:31:00,37.7,34.8,30.15,East,87,3.0,7.0,89,0.09,,,0.12,0,Wunderground v.1.15,2013-01-16 06:31:00,
2013-01-16 01:37:00,37.6,34.7,30.15,NE,46,5.0,9.0,89,0.09,,,0.13,0,Wunderground v.1.15,2013-01-16 06:37:00,
2013-01-16 01:43:00,37.6,34.7,30.14,East,92,5.0,8.0,89,0.08,,,0.14,0,Wunderground v.1.15,2013-01-16 06:43:00,
2013-01-16 01:49:00,37.6,34.9,30.14,East,88,0.0,11.0,90,0.08,,,0.14,0,Wunderground v.1.15,2013-01-16 06:49:00,
2013-01-16 01:55:00,37.5,34.8,30.14,ENE,57,4.0,7.0,90,0.05,,,0.15,0,Wunderground v.1.15,2013-01-16 06:55:00,
2013-01-16 02:01:00,37.4,34.7,30.14,East,84,9.0,9.0,90,0.05,,,0.15,0,Wunderground v.1.15,2013-01-16 07:01:00,
2013-01-16 02:06:00,37.5,34.8,30.13,ENE,63,10.0,12.0,90,0.05,,,0.15,0,Wunderground v.1.15,2013-01-16 07:06:00,
2013-01-16 02:11:00,37.4,34.7,30.13,ENE,71,5.0,13.0,90,0.05,,,0.16,0,Wunderground v.1.15,2013-01-16 07:11:00,
2013-01-16 02:16:00,37.4,34.7,30.13,NE,41,4.0,13.0,90,0.05,,,0.16,0,Wunderground v.1.15,2013-01-16 07:16:00,
2013-01-16 02:21:00,37.3,34.6,30.12,ENE,69,13.0,13.0,90,0.05,,,0.17,0,Wunderground v.1.15,2013-01-16 07:21:00,
2013-01-16 02:26:00,37.3,34.6,30.12,ENE,77,13.0,14.0,90,0.05,,,0.17,0,Wunderground v.1.15,2013-01-16 07:26:00,
2013-01-16 02:31:00,37.2,34.5,30.12,ENE,57,1.0,13.0,90,0.08,,,0.18,0,Wunderground v.1.15,2013-01-16 07:31:00,
2013-01-16 02:36:00,37.1,34.4,30.12,East,91,2.0,13.0,90,0.09,,,0.19,0,Wunderground v.1.15,2013-01-16 07:36:00,
2013-01-16 02:41:00,37.1,34.4,30.12,ENE,60,7.0,11.0,90,0.12,,,0.20,0,Wunderground v.1.15,2013-01-16 07:41:00,
2013-01-16 02:46:00,37.0,34.6,30.11,NE,40,5.0,17.0,91,0.15,,,0.21,0,Wunderground v.1.15,2013-01-16 07:46:00,
2013-01-16 02:51:00,37.0,34.6,30.11,East,81,0.0,9.0,91,0.12,,,0.23,0,Wunderground v.1.15,2013-01-16 07:51:00,
2013-01-16 02:56:00,37.0,34.6,30.11,East,98,9.0,17.0,91,0.14,,,0.24,0,Wunderground v.1.15,2013-01-16 07:56:00,
2013-01-16 03:01:00,37.1,34.7,30.10,East,87,10.0,16.0,91,0.12,,,0.25,0,Wunderground v.1.15,2013-01-16 08:01:00,
2013-01-16 03:06:00,37.1,34.7,30.10,East,79,9.0,16.0,91,0.12,,,0.26,0,Wunderground v.1.15,2013-01-16 08:06:00,
2013-01-16 03:11:00,37.0,34.6,30.10,NE,48,4.0,14.0,91,0.13,,,0.27,0,Wunderground v.1.15,2013-01-16 08:11:00,
2013-01-16 03:16:00,37.1,34.7,30.10,ENE,70,4.0,14.0,91,0.14,,,0.28,0,Wunderground v.1.15,2013-01-16 08:16:00,
2013-01-16 03:21:00,37.1,34.7,30.09,ENE,69,3.0,16.0,91,0.17,,,0.29,0,Wunderground v.1.15,2013-01-16 08:21:00,
2013-01-16 03:26:00,37.0,34.6,30.09,East,97,10.0,16.0,91,0.13,,,0.30,0,Wunderground v.1.15,2013-01-16 08:26:00,
2013-01-16 03:31:00,37.1,35.0,30.08,ENE,69,1.0,13.0,92,0.11,,,0.31,0,Wunderground v.1.15,2013-01-16 08:31:00,
2013-01-16 03:36:00,37.0,34.9,30.07,ENE,60,12.0,16.0,92,0.16,,,0.33,0,Wunderground v.1.15,2013-01-16 08:36:00,
2013-01-16 03:41:00,37.0,34.9,30.07,NNE,16,7.0,14.0,92,0.23,,,0.35,0,Wunderground v.1.15,2013-01-16 08:41:00,
2013-01-16 03:46:00,37.0,34.9,30.07,ENE,77,8.0,17.0,92,0.23,,,0.37,0,Wunderground v.1.15,2013-01-16 08:46:00,
2013-01-16 03:51:00,36.9,34.8,30.08,ENE,57,4.0,9.0,92,0.24,,,0.39,0,Wunderground v.1.15,2013-01-16 08:51:00,
2013-01-16 03:56:00,36.9,34.8,30.08,East,85,7.0,16.0,92,0.27,,,0.41,0,Wunderground v.1.15,2013-01-16 08:56:00,
2013-01-16 04:01:00,36.9,34.8,30.07,East,82,2.0,13.0,92,0.24,,,0.43,0,Wunderground v.1.15,2013-01-16 09:01:00,
2013-01-16 04:06:00,36.9,34.8,30.08,ENE,66,3.0,13.0,92,0.21,,,0.45,0,Wunderground v.1.15,2013-01-16 09:06:00,
2013-01-16 04:11:00,36.9,34.8,30.07,East,88,8.0,13.0,92,0.23,,,0.47,0,Wunderground v.1.15,2013-01-16 09:11:00,
2013-01-16 04:16:00,36.9,34.8,30.07,ENE,74,8.0,14.0,92,0.27,,,0.49,0,Wunderground v.1.15,2013-01-16 09:16:00,
2013-01-16 04:21:00,37.0,34.9,30.06,East,87,13.0,13.0,92,0.20,,,0.51,0,Wunderground v.1.15,2013-01-16 09:21:00,
2013-01-16 04:26:00,37.0,34.9,30.06,East,92,6.0,13.0,92,0.21,,,0.52,0,Wunderground v.1.15,2013-01-16 09:26:00,
2013-01-16 04:31:00,37.1,35.0,30.06,East,84,0.0,8.0,92,0.14,,,0.53,0,Wunderground v.1.15,2013-01-16 09:31:00,
2013-01-16 04:36:00,37.1,35.0,30.06,East,79,8.0,15.0,92,0.09,,,0.54,0,Wunderground v.1.15,2013-01-16 09:36:00,
2013-01-16 04:41:00,37.1,35.0,30.06,ENE,78,4.0,11.0,92,0.11,,,0.55,0,Wunderground v.1.15,2013-01-16 09:41:00,
2013-01-16 04:46:00,37.1,35.0,30.07,NNE,32,4.0,13.0,92,0.17,,,0.56,0,Wunderground v.1.15,2013-01-16 09:46:00,
2013-01-16 04:51:00,37.1,35.0,30.08,NE,46,3.0,10.0,92,0.14,,,0.57,0,Wunderground v.1.15,2013-01-16 09:51:00,
2013-01-16 04:56:00,37.1,35.0,30.08,NNE,19,4.0,14.0,92,0.09,,,0.58,0,Wunderground v.1.15,2013-01-16 09:56:00,
2013-01-16 05:01:00,37.1,35.0,30.08,NE,38,4.0,12.0,92,0.11,,,0.59,0,Wunderground v.1.15,2013-01-16 10:01:00,
2013-01-16 05:06:00,37.0,35.2,30.08,ENE,65,4.0,12.0,93,0.10,,,0.60,0,Wunderground v.1.15,2013-01-16 10:06:00,
2013-01-16 05:11:00,37.0,35.2,30.07,NNE,27,3.0,12.0,93,0.09,,,0.60,0,Wunderground v.1.15,2013-01-16 10:11:00,
2013-01-16 05:16:00,36.9,35.1,30.07,ENE,74,12.0,12.0,93,0.08,,,0.61,0,Wunderground v.1.15,2013-01-16 10:16:00,
2013-01-16 05:21:00,36.9,35.1,30.07,NE,34,6.0,9.0,93,0.07,,,0.61,0,Wunderground v.1.15,2013-01-16 10:21:00,
2013-01-16 05:26:00,36.8,35.0,30.05,ENE,60,10.0,12.0,93,0.05,,,0.62,0,Wunderground v.1.15,2013-01-16 10:26:00,
2013-01-16 05:31:00,36.8,35.0,30.05,NE,56,4.0,13.0,93,0.05,,,0.62,0,Wunderground v.1.15,2013-01-16 10:31:00,
2013-01-16 05:36:00,36.8,35.0,30.05,East,100,3.0,13.0,93,0.05,,,0.62,0,Wunderground v.1.15,2013-01-16 10:36:00,
2013-01-16 05:41:00,36.8,35.0,30.04,ENE,61,18.0,18.0,93,0.00,,,0.62,0,Wunderground v.1.15,2013-01-16 10:41:00,
2013-01-16 05:47:00,36.9,35.1,30.04,East,79,6.0,18.0,93,0.00,,,0.63,0,Wunderground v.1.15,2013-01-16 10:47:00,
2013-01-16 05:52:00,36.9,35.1,30.04,NE,45,6.0,10.0,93,0.00,,,0.63,0,Wunderground v.1.15,2013-01-16 10:52:00,
2013-01-16 05:57:00,36.9,35.1,30.05,ENE,60,8.0,11.0,93,0.00,,,0.63,0,Wunderground v.1.15,2013-01-16 10:57:00,
2013-01-16 06:01:00,37.0,35.2,30.04,NNE,32,4.0,10.0,93,0.00,,,0.64,0,Wunderground v.1.15,2013-01-16 11:01:00,
2013-01-16 06:06:00,37.1,35.3,30.04,NE,51,6.0,11.0,93,0.00,,,0.64,0,Wunderground v.1.15,2013-01-16 11:06:00,
2013-01-16 06:11:00,37.1,35.3,30.04,ENE,69,8.0,8.0,93,0.00,,,0.64,0,Wunderground v.1.15,2013-01-16 11:11:00,
2013-01-16 06:16:00,37.1,35.3,30.03,NE,49,4.0,13.0,93,0.00,,,0.64,0,Wunderground v.1.15,2013-01-16 11:16:00,
2013-01-16 06:21:00,37.2,35.4,30.02,ENE,67,9.0,11.0,93,0.00,,,0.65,0,Wunderground v.1.15,2013-01-16 11:21:00,
2013-01-16 06:26:00,37.3,35.5,30.03,East,80,5.0,13.0,93,0.00,,,0.65,0,Wunderground v.1.15,2013-01-16 11:26:00,
2013-01-16 06:31:00,37.3,35.5,30.02,East,88,10.0,10.0,93,0.00,,,0.65,0,Wunderground v.1.15,2013-01-16 11:31:00,
2013-01-16 06:36:00,37.3,35.5,30.02,ENE,78,8.0,14.0,93,0.00,,,0.65,0,Wunderground v.1.15,2013-01-16 11:36:00,
2013-01-16 06:42:00,37.4,35.8,30.02,East,82,9.0,9.0,94,0.00,,,0.65,0,Wunderground v.1.15,2013-01-16 11:42:00,
2013-01-16 06:46:00,37.5,35.7,30.02,NE,44,0.0,12.0,93,0.00,,,0.65,0,Wunderground v.1.15,2013-01-16 11:46:00,
2013-01-16 06:52:00,37.6,35.8,30.02,East,94,1.0,13.0,93,0.00,,,0.66,0,Wunderground v.1.15,2013-01-16 11:52:00,
2013-01-16 06:57:00,37.7,36.1,30.02,ENE,76,4.0,13.0,94,0.00,,,0.66,0,Wunderground v.1.15,2013-01-16 11:57:00,
2013-01-16 07:02:00,37.8,36.2,30.02,ENE,78,3.0,13.0,94,0.00,,,0.66,0,Wunderground v.1.15,2013-01-16 12:02:00,
2013-01-16 07:07:00,37.9,36.3,30.02,East,79,9.0,13.0,94,0.00,,,0.66,0,Wunderground v.1.15,2013-01-16 12:07:00,
2013-01-16 07:12:00,38.1,36.5,30.01,NE,49,2.0,12.0,94,0.00,,,0.66,0,Wunderground v.1.15,2013-01-16 12:12:00,
2013-01-16 07:17:00,38.2,36.6,30.01,East,89,8.0,12.0,94,0.00,,,0.67,0,Wunderground v.1.15,2013-01-16 12:17:00,
2013-01-16 07:22:00,38.3,36.7,30.01,NE,38,4.0,13.0,94,0.00,,,0.67,0,Wunderground v.1.15,2013-01-16 12:22:00,
2013-01-16 07:27:00,38.4,36.8,30.02,East,82,11.0,13.0,94,0.00,,,0.67,0,Wunderground v.1.15,2013-01-16 12:27:00,
2013-01-16 07:32:00,38.5,36.9,30.02,East,81,2.0,9.0,94,0.04,,,0.68,0,Wunderground v.1.15,2013-01-16 12:32:00,
2013-01-16 07:37:00,38.7,37.1,30.02,East,79,1.0,11.0,94,0.04,,,0.68,0,Wunderground v.1.15,2013-01-16 12:37:00,
2013-01-16 07:42:00,38.8,37.2,30.01,East,86,5.0,11.0,94,0.04,,,0.68,0,Wunderground v.1.15,2013-01-16 12:42:00,
2013-01-16 07:47:00,38.9,37.3,30.00,NE,52,2.0,13.0,94,0.00,,,0.68,5,Wunderground v.1.15,2013-01-16 12:47:00,
2013-01-16 07:52:00,38.9,37.3,30.00,ESE,112,4.0,13.0,94,0.00,,,0.68,7,Wunderground v.1.15,2013-01-16 12:52:00,
2013-01-16 07:57:00,39.1,37.5,30.00,ENE,74,7.0,13.0,94,0.00,,,0.68,5,Wunderground v.1.15,2013-01-16 12:57:00,
2013-01-16 08:02:00,39.1,37.5,30.00,ENE,74,0.0,7.0,94,0.00,,,0.68,9,Wunderground v.1.15,2013-01-16 13:02:00,
2013-01-16 08:07:00,39.2,37.6,30.01,ENE,71,4.0,10.0,94,0.00,,,0.68,7,Wunderground v.1.15,2013-01-16 13:07:00,
2013-01-16 08:12:00,39.3,37.7,30.00,ESE,107,5.0,10.0,94,0.00,,,0.68,9,Wunderground v.1.15,2013-01-16 13:12:00,
2013-01-16 08:17:00,39.4,37.8,30.00,East,82,3.0,11.0,94,0.00,,,0.68,7,Wunderground v.1.15,2013-01-16 13:17:00,
2013-01-16 08:22:00,39.5,37.9,30.00,ENE,67,5.0,9.0,94,0.00,,,0.69,11,Wunderground v.1.15,2013-01-16 13:22:00,
2013-01-16 08:27:00,39.5,37.9,29.99,East,82,0.0,10.0,94,0.00,,,0.69,18,Wunderground v.1.15,2013-01-16 13:27:00,
2013-01-16 08:32:00,39.6,38.0,29.99,NE,49,3.0,10.0,94,0.00,,,0.69,18,Wunderground v.1.15,2013-01-16 13:32:00,
2013-01-16 08:37:00,39.7,38.1,29.98,East,86,0.0,11.0,94,0.00,,,0.69,30,Wunderground v.1.15,2013-01-16 13:37:00,
2013-01-16 08:42:00,39.7,38.1,29.97,East,86,0.0,9.0,94,0.00,,,0.69,23,Wunderground v.1.15,2013-01-16 13:42:00,
2013-01-16 08:47:00,39.8,38.2,29.98,ENE,66,8.0,9.0,94,0.00,,,0.69,16,Wunderground v.1.15,2013-01-16 13:47:00,
2013-01-16 08:52:00,39.9,38.3,29.98,ENE,60,8.0,8.0,94,0.00,,,0.69,16,Wunderground v.1.15,2013-01-16 13:52:00,
2013-01-16 08:57:00,40.0,38.4,29.98,East,82,0.0,9.0,94,0.00,,,0.69,12,Wunderground v.1.15,2013-01-16 13:57:00,
2013-01-16 09:02:00,40.2,38.6,29.98,East,82,5.0,7.0,94,0.00,,,0.69,18,Wunderground v.1.15,2013-01-16 14:02:00,
2013-01-16 09:07:00,40.2,38.6,29.97,East,85,0.0,7.0,94,0.00,,,0.69,19,Wunderground v.1.15,2013-01-16 14:07:00,
2013-01-16 09:12:00,40.4,38.8,29.96,East,82,0.0,8.0,94,0.00,,,0.69,23,Wunderground v.1.15,2013-01-16 14:12:00,
2013-01-16 09:17:00,40.5,38.9,29.96,East,96,0.0,10.0,94,0.00,,,0.69,18,Wunderground v.1.15,2013-01-16 14:17:00,
2013-01-16 09:22:00,40.6,39.0,29.95,ESE,121,3.0,3.0,94,0.00,,,0.69,12,Wunderground v.1.15,2013-01-16 14:22:00,
2013-01-16 09:27:00,40.6,39.0,29.95,SSE,154,0.0,6.0,94,0.00,,,0.69,30,Wunderground v.1.15,2013-01-16 14:27:00,
2013-01-16 09:32:00,40.8,39.5,29.94,East,101,2.0,5.0,95,0.00,,,0.69,26,Wunderground v.1.15,2013-01-16 14:32:00,
2013-01-16 09:37:00,40.9,39.6,29.93,ESE,106,2.0,7.0,95,0.00,,,0.69,25,Wunderground v.1.15,2013-01-16 14:37:00,
2013-01-16 09:42:00,41.0,39.7,29.93,SE,141,3.0,4.0,95,0.00,,,0.69,23,Wunderground v.1.15,2013-01-16 14:42:00,
2013-01-16 09:47:00,41.1,39.5,29.94,South,170,2.0,6.0,94,0.00,,,0.70,18,Wunderground v.1.15,2013-01-16 14:47:00,
2013-01-16 09:52:00,41.1,39.5,29.93,SE,124,2.0,3.0,94,0.00,,,0.70,14,Wunderground v.1.15,2013-01-16 14:52:00,
2013-01-16 09:57:00,41.1,39.5,29.94,SE,138,6.0,10.0,94,0.00,,,0.70,18,Wunderground v.1.15,2013-01-16 14:57:00,
2013-01-16 10:02:00,41.2,39.6,29.95,SSE,152,0.0,9.0,94,0.00,,,0.70,25,Wunderground v.1.15,2013-01-16 15:02:00,
2013-01-16 10:07:00,41.2,39.6,29.94,ESE,123,0.0,9.0,94,0.00,,,0.70,30,Wunderground v.1.15,2013-01-16 15:07:00,
2013-01-16 10:12:00,41.3,39.7,29.94,ESE,123,0.0,1.0,94,0.00,,,0.71,33,Wunderground v.1.15,2013-01-16 15:12:00,
2013-01-16 10:17:00,41.3,39.7,29.95,ESE,123,0.0,1.0,94,0.08,,,0.72,25,Wunderground v.1.15,2013-01-16 15:17:00,
2013-01-16 10:22:00,41.4,40.1,29.95,ESE,123,0.0,1.0,95,0.08,,,0.72,21,Wunderground v.1.15,2013-01-16 15:22:00,
2013-01-16 10:27:00,41.4,40.1,29.95,ESE,123,0.0,3.0,95,0.05,,,0.72,23,Wunderground v.1.15,2013-01-16 15:27:00,
2013-01-16 10:32:00,41.5,40.2,29.95,ESE,123,0.0,0.0,95,0.04,,,0.73,25,Wunderground v.1.15,2013-01-16 15:32:00,
2013-01-16 10:37:00,41.5,40.2,29.94,ESE,123,0.0,1.0,95,0.04,,,0.73,33,Wunderground v.1.15,2013-01-16 15:37:00,
2013-01-16 10:43:00,41.6,40.3,29.94,ESE,123,0.0,1.0,95,0.04,,,0.73,44,Wunderground v.1.15,2013-01-16 15:43:00,
2013-01-16 10:48:00,41.6,40.3,29.95,ESE,123,0.0,1.0,95,0.04,,,0.73,35,Wunderground v.1.15,2013-01-16 15:48:00,
2013-01-16 10:53:00,41.7,40.1,29.95,ESE,123,0.0,0.0,94,0.00,,,0.74,35,Wunderground v.1.15,2013-01-16 15:53:00,
2013-01-16 10:58:00,41.7,40.1,29.96,ESE,123,0.0,0.0,94,0.00,,,0.74,25,Wunderground v.1.15,2013-01-16 15:58:00,
2013-01-16 11:03:00,41.8,40.5,29.95,ESE,123,0.0,1.0,95,0.00,,,0.74,26,Wunderground v.1.15,2013-01-16 16:03:00,
2013-01-16 11:08:00,41.8,40.5,29.95,ESE,123,0.0,2.0,95,0.00,,,0.74,53,Wunderground v.1.15,2013-01-16 16:08:00,
2013-01-16 11:13:00,41.9,40.6,29.95,ESE,123,0.0,0.0,95,0.00,,,0.74,37,Wunderground v.1.15,2013-01-16 16:13:00,
2013-01-16 11:18:00,42.0,40.7,29.94,ESE,123,0.0,1.0,95,0.00,,,0.74,32,Wunderground v.1.15,2013-01-16 16:18:00,
2013-01-16 11:23:00,42.0,40.7,29.93,ESE,123,0.0,0.0,95,0.00,,,0.74,54,Wunderground v.1.15,2013-01-16 16:23:00,
2013-01-16 11:28:00,42.1,40.8,29.93,ESE,123,0.0,0.0,95,0.00,,,0.74,42,Wunderground v.1.15,2013-01-16 16:28:00,
2013-01-16 11:33:00,42.1,40.8,29.92,ESE,123,0.0,0.0,95,0.00,,,0.75,42,Wunderground v.1.15,2013-01-16 16:33:00,
2013-01-16 11:38:00,42.1,40.8,29.91,ESE,123,0.0,0.0,95,0.00,,,0.75,62,Wunderground v.1.15,2013-01-16 16:38:00,
2013-01-16 11:43:00,42.2,40.9,29.91,ESE,123,0.0,0.0,95,0.00,,,0.75,56,Wunderground v.1.15,2013-01-16 16:43:00,
2013-01-16 11:48:00,42.1,40.8,29.91,ESE,123,0.0,1.0,95,0.00,,,0.75,56,Wunderground v.1.15,2013-01-16 16:48:00,
2013-01-16 11:53:00,42.2,40.9,29.89,ESE,123,0.0,1.0,95,0.00,,,0.75,86,Wunderground v.1.15,2013-01-16 16:53:00,
2013-01-16 11:58:00,42.2,40.9,29.89,ESE,123,0.0,1.0,95,0.00,,,0.75,116,Wunderground v.1.15,2013-01-16 16:58:00,
2013-01-16 12:03:00,42.3,41.0,29.89,ESE,123,0.0,0.0,95,0.00,,,0.75,53,Wunderground v.1.15,2013-01-16 17:03:00,
2013-01-16 12:08:00,42.4,41.1,29.89,ESE,123,0.0,1.0,95,0.00,,,0.75,69,Wunderground v.1.15,2013-01-16 17:08:00,
2013-01-16 12:13:00,42.5,41.2,29.89,ESE,123,0.0,1.0,95,0.00,,,0.75,51,Wunderground v.1.15,2013-01-16 17:13:00,
2013-01-16 12:18:00,42.5,41.2,29.89,North,355,0.0,4.0,95,0.00,,,0.75,63,Wunderground v.1.15,2013-01-16 17:18:00,
2013-01-16 12:23:00,42.5,41.2,29.90,North,355,0.0,1.0,95,0.00,,,0.75,58,Wunderground v.1.15,2013-01-16 17:23:00,
2013-01-16 12:28:00,42.6,41.3,29.89,North,355,0.0,3.0,95,0.00,,,0.75,65,Wunderground v.1.15,2013-01-16 17:28:00,
2013-01-16 12:33:00,42.6,41.3,29.90,North,355,0.0,2.0,95,0.00,,,0.75,42,Wunderground v.1.15,2013-01-16 17:33:00,
2013-01-16 12:38:00,42.7,41.4,29.89,North,355,0.0,2.0,95,0.00,,,0.75,42,Wunderground v.1.15,2013-01-16 17:38:00,
2013-01-16 12:43:00,42.7,41.4,29.88,North,355,0.0,1.0,95,0.00,,,0.75,46,Wunderground v.1.15,2013-01-16 17:43:00,
2013-01-16 12:48:00,42.6,41.3,29.88,North,355,0.0,1.0,95,0.00,,,0.75,37,Wunderground v.1.15,2013-01-16 17:48:00,
2013-01-16 12:53:00,42.6,41.3,29.87,North,355,0.0,0.0,95,0.00,,,0.75,37,Wunderground v.1.15,2013-01-16 17:53:00,
2013-01-16 12:58:00,42.5,41.2,29.86,North,355,0.0,1.0,95,0.00,,,0.75,33,Wunderground v.1.15,2013-01-16 17:58:00,
2013-01-16 13:03:00,42.4,40.8,29.86,North,355,0.0,3.0,94,0.00,,,0.75,33,Wunderground v.1.15,2013-01-16 18:03:00,
2013-01-16 13:08:00,42.3,40.7,29.85,North,355,0.0,3.0,94,0.00,,,0.75,32,Wunderground v.1.15,2013-01-16 18:08:00,
2013-01-16 13:13:00,42.0,40.4,29.84,North,355,0.0,3.0,94,0.00,,,0.75,30,Wunderground v.1.15,2013-01-16 18:13:00,
2013-01-16 13:18:00,41.9,40.3,29.84,North,355,0.0,3.0,94,0.00,,,0.75,33,Wunderground v.1.15,2013-01-16 18:18:00,
2013-01-16 13:23:00,41.8,40.2,29.84,North,355,0.0,0.0,94,0.00,,,0.75,33,Wunderground v.1.15,2013-01-16 18:23:00,
2013-01-16 13:28:00,41.7,40.1,29.83,North,355,0.0,0.0,94,0.00,,,0.75,33,Wunderground v.1.15,2013-01-16 18:28:00,
2013-01-16 13:33:00,41.7,40.1,29.82,North,355,0.0,0.0,94,0.00,,,0.75,39,Wunderground v.1.15,2013-01-16 18:33:00,
2013-01-16 13:38:00,41.7,40.4,29.80,North,355,0.0,0.0,95,0.00,,,0.75,35,Wunderground v.1.15,2013-01-16 18:38:00,
2013-01-16 13:43:00,41.7,40.4,29.79,North,355,0.0,2.0,95,0.00,,,0.75,40,Wunderground v.1.15,2013-01-16 18:43:00,
2013-01-16 13:48:00,41.9,40.6,29.80,South,176,4.0,6.0,95,0.00,,,0.75,35,Wunderground v.1.15,2013-01-16 18:48:00,
2013-01-16 13:53:00,42.2,40.9,29.79,SSE,167,2.0,8.0,95,0.00,,,0.75,35,Wunderground v.1.15,2013-01-16 18:53:00,
2013-01-16 13:58:00,42.3,41.0,29.78,SSE,168,6.0,8.0,95,0.00,,,0.75,32,Wunderground v.1.15,2013-01-16 18:58:00,
2013-01-16 14:03:00,42.4,41.1,29.77,South,176,5.0,10.0,95,0.00,,,0.75,35,Wunderground v.1.15,2013-01-16 19:03:00,
2013-01-16 14:08:00,42.4,41.1,29.76,South,174,4.0,10.0,95,0.00,,,0.75,35,Wunderground v.1.15,2013-01-16 19:08:00,
2013-01-16 14:13:00,42.5,41.2,29.78,South,182,3.0,9.0,95,0.00,,,0.75,32,Wunderground v.1.15,2013-01-16 19:13:00,
2013-01-16 14:18:00,42.5,41.2,29.78,South,174,4.0,9.0,95,0.00,,,0.75,26,Wunderground v.1.15,2013-01-16 19:18:00,
2013-01-16 14:23:00,42.5,41.2,29.83,NW,315,3.0,5.0,95,0.00,,,0.75,19,Wunderground v.1.15,2013-01-16 19:23:00,
2013-01-16 14:28:00,42.6,41.3,29.83,WNW,287,2.0,7.0,95,0.00,,,0.75,18,Wunderground v.1.15,2013-01-16 19:28:00,
2013-01-16 14:33:00,42.7,41.4,29.85,NW,321,3.0,9.0,95,0.00,,,0.75,14,Wunderground v.1.15,2013-01-16 19:33:00,
2013-01-16 14:38:00,42.6,41.3,29.84,NW,304,5.0,12.0,95,0.00,,,0.75,16,Wunderground v.1.15,2013-01-16 19:38:00,
2013-01-16 14:43:00,42.4,40.8,29.86,NW,314,1.0,8.0,94,0.00,,,0.75,14,Wunderground v.1.15,2013-01-16 19:43:00,
2013-01-16 14:48:00,42.0,40.4,29.87,North,355,9.0,12.0,94,0.00,,,0.75,12,Wunderground v.1.15,2013-01-16 19:48:00,
2013-01-16 14:53:00,41.5,39.9,29.87,NNW,331,3.0,8.0,94,0.00,,,0.75,12,Wunderground v.1.15,2013-01-16 19:53:00,
2013-01-16 14:58:00,41.0,39.4,29.89,NW,324,11.0,12.0,94,0.00,,,0.75,11,Wunderground v.1.15,2013-01-16 19:58:00,
2013-01-16 15:03:00,40.6,39.0,29.89,NW,311,5.0,11.0,94,0.00,,,0.76,12,Wunderground v.1.15,2013-01-16 20:03:00,
2013-01-16 15:08:00,40.3,38.7,29.88,NNW,331,4.0,11.0,94,0.00,,,0.76,12,Wunderground v.1.15,2013-01-16 20:08:00,
2013-01-16 15:13:00,40.0,38.4,29.87,NNW,341,3.0,5.0,94,0.00,,,0.76,11,Wunderground v.1.15,2013-01-16 20:13:00,
2013-01-16 15:19:00,39.7,38.1,29.86,North,360,6.0,9.0,94,0.00,,,0.76,14,Wunderground v.1.15,2013-01-16 20:19:00,
2013-01-16 15:24:00,39.4,37.8,29.85,NNW,345,6.0,8.0,94,0.00,,,0.76,12,Wunderground v.1.15,2013-01-16 20:24:00,
2013-01-16 15:29:00,39.0,37.4,29.84,North,360,3.0,9.0,94,0.00,,,0.76,11,Wunderground v.1.15,2013-01-16 20:29:00,
2013-01-16 15:34:00,38.7,37.1,29.89,NNW,329,3.0,7.0,94,0.00,,,0.76,9,Wunderground v.1.15,2013-01-16 20:34:00,
2013-01-16 15:39:00,38.5,36.9,29.85,North,5,0.0,9.0,94,0.00,,,0.76,11,Wunderground v.1.15,2013-01-16 20:39:00,
2013-01-16 15:44:00,38.3,36.7,29.85,North,350,3.0,5.0,94,0.00,,,0.76,9,Wunderground v.1.15,2013-01-16 20:44:00,
2013-01-16 15:49:00,38.1,36.5,29.92,NNW,333,11.0,11.0,94,0.00,,,0.76,0,Wunderground v.1.15,2013-01-16 20:49:00,
2013-01-16 15:54:00,37.8,36.2,29.92,NNW,327,4.0,11.0,94,0.00,,,0.76,0,Wunderground v.1.15,2013-01-16 20:54:00,
2013-01-16 15:59:00,37.4,35.8,29.91,NNW,336,2.0,12.0,94,0.00,,,0.76,5,Wunderground v.1.15,2013-01-16 20:59:00,
2013-01-16 16:04:00,37.1,35.5,29.90,North,355,3.0,10.0,94,0.00,,,0.76,7,Wunderground v.1.15,2013-01-16 21:04:00,
2013-01-16 16:09:00,37.0,35.4,29.90,NNW,342,2.0,10.0,94,0.00,,,0.76,5,Wunderground v.1.15,2013-01-16 21:09:00,
2013-01-16 16:14:00,36.8,35.2,29.89,North,5,0.0,5.0,94,0.00,,,0.76,5,Wunderground v.1.15,2013-01-16 21:14:00,
2013-01-16 16:19:00,36.7,35.1,29.88,NNE,15,0.0,5.0,94,0.00,,,0.76,12,Wunderground v.1.15,2013-01-16 21:19:00,
2013-01-16 16:24:00,36.7,35.1,29.88,NNE,15,0.0,1.0,94,0.00,,,0.76,11,Wunderground v.1.15,2013-01-16 21:24:00,
2013-01-16 16:29:00,36.7,35.1,29.91,NNE,15,0.0,1.0,94,0.00,,,0.76,5,Wunderground v.1.15,2013-01-16 21:29:00,
2013-01-16 16:34:00,36.8,35.2,29.90,North,5,0.0,1.0,94,0.00,,,0.76,0,Wunderground v.1.15,2013-01-16 21:34:00,
2013-01-16 16:39:00,36.8,35.2,29.90,North,5,0.0,1.0,94,0.00,,,0.76,0,Wunderground v.1.15,2013-01-16 21:39:00,
2013-01-16 16:44:00,36.8,35.2,29.89,North,5,0.0,0.0,94,0.00,,,0.76,0,Wunderground v.1.15,2013-01-16 21:44:00,
2013-01-16 16:49:00,36.9,35.3,29.91,NW,314,1.0,4.0,94,0.00,,,0.76,0,Wunderground v.1.15,2013-01-16 21:49:00,
2013-01-16 16:54:00,36.8,35.2,29.90,West,279,0.0,5.0,94,0.00,,,0.76,0,Wunderground v.1.15,2013-01-16 21:54:00,
2013-01-16 16:59:00,36.9,35.3,29.90,West,278,0.0,5.0,94,0.00,,,0.76,0,Wunderground v.1.15,2013-01-16 21:59:00,
2013-01-16 17:04:00,36.9,35.3,29.91,West,279,0.0,3.0,94,0.00,,,0.76,0,Wunderground v.1.15,2013-01-16 22:04:00,
2013-01-16 17:09:00,37.0,35.7,29.91,West,279,0.0,3.0,95,0.00,,,0.76,0,Wunderground v.1.15,2013-01-16 22:09:00,
2013-01-16 17:14:00,37.0,35.7,29.91,West,277,0.0,3.0,95,0.00,,,0.76,0,Wunderground v.1.15,2013-01-16 22:14:00,
2013-01-16 17:19:00,37.1,35.8,29.91,WNW,284,0.0,3.0,95,0.00,,,0.76,0,Wunderground v.1.15,2013-01-16 22:19:00,
2013-01-16 17:24:00,37.1,35.8,29.91,WNW,290,2.0,4.0,95,0.00,,,0.76,0,Wunderground v.1.15,2013-01-16 22:24:00,
2013-01-16 17:29:00,37.1,35.8,29.91,WNW,289,0.0,4.0,95,0.00,,,0.76,0,Wunderground v.1.15,2013-01-16 22:29:00,
2013-01-16 17:34:00,37.2,35.9,29.90,WNW,288,2.0,4.0,95,0.00,,,0.76,0,Wunderground v.1.15,2013-01-16 22:34:00,
2013-01-16 17:39:00,37.2,35.6,29.91,West,281,0.0,6.0,94,0.00,,,0.76,0,Wunderground v.1.15,2013-01-16 22:39:00,
2013-01-16 17:45:00,37.2,35.6,29.91,NW,309,0.0,5.0,94,0.00,,,0.76,0,Wunderground v.1.15,2013-01-16 22:45:00,
2013-01-16 17:50:00,37.2,35.9,29.92,WNW,288,0.0,1.0,95,0.00,,,0.76,0,Wunderground v.1.15,2013-01-16 22:50:00,
2013-01-16 17:55:00,37.3,36.0,29.92,NW,308,0.0,6.0,95,0.00,,,0.76,0,Wunderground v.1.15,2013-01-16 22:55:00,
2013-01-16 18:00:00,37.3,35.7,29.92,NW,313,3.0,5.0,94,0.00,,,0.76,0,Wunderground v.1.15,2013-01-16 23:00:00,
2013-01-16 18:05:00,37.3,35.7,29.92,NW,305,0.0,5.0,94,0.00,,,0.76,0,Wunderground v.1.15,2013-01-16 23:05:00,
2013-01-16 18:10:00,37.3,35.7,29.91,NW,305,0.0,1.0,94,0.00,,,0.76,0,Wunderground v.1.15,2013-01-16 23:10:00,
2013-01-16 18:15:00,37.3,35.7,29.90,WNW,303,4.0,5.0,94,0.00,,,0.76,0,Wunderground v.1.15,2013-01-16 23:15:00,
2013-01-16 18:20:00,37.3,35.7,29.91,WNW,298,0.0,3.0,94,0.00,,,0.76,0,Wunderground v.1.15,2013-01-16 23:20:00,
2013-01-16 18:25:00,37.3,35.7,29.92,WNW,300,0.0,5.0,94,0.00,,,0.76,0,Wunderground v.1.15,2013-01-16 23:25:00,
2013-01-16 18:30:00,37.2,35.6,29.92,WNW,290,3.0,5.0,94,0.00,,,0.76,0,Wunderground v.1.15,2013-01-16 23:30:00,
2013-01-16 18:35:00,37.2,35.6,29.91,WNW,302,3.0,7.0,94,0.00,,,0.76,0,Wunderground v.1.15,2013-01-16 23:35:00,
2013-01-16 18:40:00,37.1,35.5,29.92,West,273,0.0,5.0,94,0.00,,,0.76,0,Wunderground v.1.15,2013-01-16 23:40:00,
2013-01-16 18:45:00,37.1,35.5,29.92,WNW,284,0.0,5.0,94,0.00,,,0.76,0,Wunderground v.1.15,2013-01-16 23:45:00,
2013-01-16 18:50:00,37.1,35.8,29.91,WNW,286,0.0,1.0,95,0.00,,,0.76,0,Wunderground v.1.15,2013-01-16 23:50:00,
2013-01-16 18:55:00,37.1,35.8,29.91,WNW,283,1.0,5.0,95,0.00,,,0.76,0,Wunderground v.1.15,2013-01-16 23:55:00,
2013-01-16 19:00:00,37.1,35.8,29.92,WNW,284,2.0,2.0,95,0.00,,,0.76,0,Wunderground v.1.15,2013-01-17 00:00:00,
2013-01-16 19:05:00,37.1,35.8,29.92,West,278,3.0,5.0,95,0.00,,,0.76,0,Wunderground v.1.15,2013-01-17 00:05:00,
2013-01-16 19:10:00,37.1,35.8,29.92,West,277,3.0,4.0,95,0.00,,,0.76,0,Wunderground v.1.15,2013-01-17 00:10:00,
2013-01-16 19:15:00,37.1,35.8,29.92,West,279,1.0,4.0,95,0.00,,,0.76,0,Wunderground v.1.15,2013-01-17 00:15:00,
2013-01-16 19:20:00,37.1,35.8,29.92,West,269,0.0,3.0,95,0.00,,,0.76,0,Wunderground v.1.15,2013-01-17 00:20:00,
2013-01-16 19:25:00,37.2,35.9,29.91,West,265,0.0,5.0,95,0.00,,,0.76,0,Wunderground v.1.15,2013-01-17 00:25:00,
2013-01-16 19:30:00,37.2,35.9,29.91,West,265,0.0,1.0,95,0.00,,,0.76,0,Wunderground v.1.15,2013-01-17 00:30:00,
2013-01-16 19:35:00,37.3,36.0,29.90,SW,232,3.0,4.0,95,0.00,,,0.76,0,Wunderground v.1.15,2013-01-17 00:35:00,
2013-01-16 19:40:00,37.3,36.0,29.91,West,259,2.0,3.0,95,0.00,,,0.76,0,Wunderground v.1.15,2013-01-17 00:40:00,
2013-01-16 19:45:00,37.3,36.0,29.91,West,279,0.0,4.0,95,0.00,,,0.76,0,Wunderground v.1.15,2013-01-17 00:45:00,
2013-01-16 19:51:00,37.4,36.1,29.92,West,278,3.0,3.0,95,0.00,,,0.76,0,Wunderground v.1.15,2013-01-17 00:51:00,
2013-01-16 19:56:00,37.4,35.8,29.91,West,269,0.0,9.0,94,0.00,,,0.76,0,Wunderground v.1.15,2013-01-17 00:56:00,
2013-01-16 20:01:00,37.5,35.9,29.92,West,278,0.0,3.0,94,0.00,,,0.76,0,Wunderground v.1.15,2013-01-17 01:01:00,
2013-01-16 20:06:00,37.5,35.9,29.91,WNW,283,0.0,5.0,94,0.00,,,0.76,0,Wunderground v.1.15,2013-01-17 01:06:00,
2013-01-16 20:11:00,37.6,36.3,29.90,West,273,2.0,5.0,95,0.00,,,0.76,0,Wunderground v.1.15,2013-01-17 01:11:00,
2013-01-16 20:16:00,37.6,36.0,29.91,WNW,283,0.0,6.0,94,0.00,,,0.76,0,Wunderground v.1.15,2013-01-17 01:16:00,
2013-01-16 20:21:00,37.6,36.0,29.91,WNW,288,1.0,3.0,94,0.00,,,0.76,0,Wunderground v.1.15,2013-01-17 01:21:00,
2013-01-16 20:26:00,37.7,36.4,29.91,West,281,2.0,4.0,95,0.00,,,0.76,0,Wunderground v.1.15,2013-01-17 01:26:00,
2013-01-16 20:31:00,37.7,36.4,29.91,WNW,292,4.0,5.0,95,0.00,,,0.76,0,Wunderground v.1.15,2013-01-17 01:31:00,
2013-01-16 20:36:00,37.7,36.4,29.91,West,270,4.0,7.0,95,0.00,,,0.76,0,Wunderground v.1.15,2013-01-17 01:36:00,
2013-01-16 20:41:00,37.7,36.4,29.92,West,273,9.0,9.0,95,0.00,,,0.76,0,Wunderground v.1.15,2013-01-17 01:41:00,
2013-01-16 20:46:00,37.8,36.5,29.92,West,278,0.0,9.0,95,0.00,,,0.76,0,Wunderground v.1.15,2013-01-17 01:46:00,
2013-01-16 20:51:00,37.8,36.5,29.92,WNW,298,4.0,7.0,95,0.00,,,0.76,0,Wunderground v.1.15,2013-01-17 01:51:00,
2013-01-16 20:56:00,37.8,36.5,29.91,WNW,288,4.0,7.0,95,0.00,,,0.76,0,Wunderground v.1.15,2013-01-17 01:56:00,
2013-01-16 21:01:00,37.8,36.5,29.92,WNW,292,2.0,3.0,95,0.00,,,0.76,0,Wunderground v.1.15,2013-01-17 02:01:00,
2013-01-16 21:06:00,37.9,36.6,29.93,WNW,295,1.0,9.0,95,0.00,,,0.76,0,Wunderground v.1.15,2013-01-17 02:06:00,
2013-01-16 21:11:00,37.9,36.6,29.93,WNW,288,7.0,7.0,95,0.00,,,0.76,0,Wunderground v.1.15,2013-01-17 02:11:00,
2013-01-16 21:16:00,37.9,36.6,29.92,NW,313,0.0,8.0,95,0.00,,,0.76,0,Wunderground v.1.15,2013-01-17 02:16:00,
2013-01-16 21:22:00,37.9,36.6,29.92,WNW,289,6.0,6.0,95,0.00,,,0.76,0,Wunderground v.1.15,2013-01-17 02:22:00,
2013-01-16 21:27:00,37.9,36.6,29.92,WNW,293,8.0,8.0,95,0.00,,,0.76,0,Wunderground v.1.15,2013-01-17 02:27:00,
2013-01-16 21:32:00,37.9,36.6,29.92,WNW,282,5.0,11.0,95,0.00,,,0.76,0,Wunderground v.1.15,2013-01-17 02:32:00,
2013-01-16 21:36:00,37.9,36.6,29.93,WNW,288,4.0,11.0,95,0.00,,,0.76,0,Wunderground v.1.15,2013-01-17 02:36:00,
2013-01-16 21:42:00,37.9,36.6,29.92,WNW,288,3.0,8.0,95,0.00,,,0.76,0,Wunderground v.1.15,2013-01-17 02:42:00,
2013-01-16 21:47:00,37.9,36.6,29.92,NW,306,2.0,8.0,95,0.00,,,0.76,0,Wunderground v.1.15,2013-01-17 02:47:00,
2013-01-16 21:52:00,38.0,36.7,29.92,NW,305,2.0,9.0,95,0.00,,,0.76,0,Wunderground v.1.15,2013-01-17 02:52:00,
2013-01-16 21:57:00,37.9,36.6,29.93,WNW,290,4.0,11.0,95,0.00,,,0.76,0,Wunderground v.1.15,2013-01-17 02:57:00,
2013-01-16 22:02:00,38.0,36.7,29.93,WNW,292,0.0,9.0,95,0.00,,,0.76,0,Wunderground v.1.15,2013-01-17 03:02:00,
2013-01-16 22:07:00,38.0,36.7,29.91,NW,308,3.0,9.0,95,0.00,,,0.76,0,Wunderground v.1.15,2013-01-17 03:07:00,
2013-01-16 22:12:00,38.0,36.4,29.90,West,281,4.0,9.0,94,0.00,,,0.76,0,Wunderground v.1.15,2013-01-17 03:12:00,
2013-01-16 22:17:00,38.0,36.4,29.90,West,281,0.0,9.0,94,0.00,,,0.76,0,Wunderground v.1.15,2013-01-17 03:17:00,
2013-01-16 22:22:00,38.0,36.4,29.91,WNW,290,2.0,3.0,94,0.00,,,0.76,0,Wunderground v.1.15,2013-01-17 03:22:00,
2013-01-16 22:27:00,38.0,36.4,29.91,NW,306,3.0,5.0,94,0.00,,,0.76,0,Wunderground v.1.15,2013-01-17 03:27:00,
2013-01-16 22:32:00,38.0,36.4,29.92,WNW,294,0.0,6.0,94,0.00,,,0.76,0,Wunderground v.1.15,2013-01-17 03:32:00,
2013-01-16 22:37:00,38.0,36.4,29.92,WNW,285,5.0,9.0,94,0.00,,,0.76,0,Wunderground v.1.15,2013-01-17 03:37:00,
2013-01-16 22:42:00,38.0,36.4,29.91,NW,306,0.0,4.0,94,0.00,,,0.76,0,Wunderground v.1.15,2013-01-17 03:42:00,
2013-01-16 22:47:00,38.0,36.4,29.91,NW,315,2.0,7.0,94,0.00,,,0.76,0,Wunderground v.1.15,2013-01-17 03:47:00,
2013-01-16 22:52:00,38.1,36.5,29.91,WNW,290,2.0,6.0,94,0.00,,,0.76,0,Wunderground v.1.15,2013-01-17 03:52:00,
2013-01-16 22:57:00,38.1,36.5,29.92,West,279,0.0,9.0,94,0.00,,,0.76,0,Wunderground v.1.15,2013-01-17 03:57:00,
2013-01-16 23:02:00,38.1,36.5,29.92,WNW,284,0.0,6.0,94,0.00,,,0.76,0,Wunderground v.1.15,2013-01-17 04:02:00,
2013-01-16 23:07:00,38.1,36.5,29.92,NW,311,3.0,9.0,94,0.00,,,0.76,0,Wunderground v.1.15,2013-01-17 04:07:00,
2013-01-16 23:12:00,38.2,36.6,29.92,WNW,292,0.0,6.0,94,0.00,,,0.76,0,Wunderground v.1.15,2013-01-17 04:12:00,
2013-01-16 23:17:00,38.1,36.5,29.93,NW,317,1.0,6.0,94,0.00,,,0.76,0,Wunderground v.1.15,2013-01-17 04:17:00,
2013-01-16 23:22:00,38.1,36.5,29.92,WNW,301,0.0,4.0,94,0.00,,,0.76,0,Wunderground v.1.15,2013-01-17 04:22:00,
2013-01-16 23:27:00,38.1,36.5,29.92,West,266,0.0,8.0,94,0.00,,,0.76,0,Wunderground v.1.15,2013-01-17 04:27:00,
2013-01-16 23:32:00,38.2,36.6,29.91,WNW,302,0.0,6.0,94,0.00,,,0.76,0,Wunderground v.1.15,2013-01-17 04:32:00,
2013-01-16 23:38:00,38.2,36.6,29.92,WNW,300,2.0,7.0,94,0.00,,,0.76,0,Wunderground v.1.15,2013-01-17 04:38:00,
2013-01-16 23:43:00,38.1,36.5,29.92,NW,317,4.0,4.0,94,0.00,,,0.76,0,Wunderground v.1.15,2013-01-17 04:43:00,
2013-01-16 23:47:00,38.2,36.6,29.91,WNW,285,0.0,7.0,94,0.00,,,0.76,0,Wunderground v.1.15,2013-01-17 04:47:00,
2013-01-16 23:52:00,38.2,36.6,29.91,NW,317,5.0,5.0,94,0.00,,,0.76,0,Wunderground v.1.15,2013-01-17 04:52:00,
2013-01-16 23:57:00,38.2,36.6,29.92,NW,305,0.0,7.0,94,0.00,,,0.76,0,Wunderground v.1.15,2013-01-17 04:57:00,